Date,TemperatureHighF,TemperatureAvgF,TemperatureLowF,DewpointHighF,DewpointAvgF,DewpointLowF,HumidityHigh,HumidityAvg,HumidityLow,PressureMaxIn,PressureMinIn,WindSpeedMaxMPH,WindSpeedAvgMPH,GustSpeedMaxMPH,PrecipitationSumIn
2013-8-1,71.1,62.5,56.5,57.2,48.4,37.0,96,65,31,30.08,30.02,13,3,13,0.00
2013-8-2,63.7,59.4,57.4,60.1,57.4,50.5,98,93,65,30.17,30.05,9,1,9,0.13
2013-8-3,75.2,64.7,58.8,59.9,52.3,38.3,98,70,30,30.17,30.05,11,2,11,0.00
2013-8-4,81.5,66.4,55.2,58.1,47.9,37.6,98,59,22,30.08,29.96,15,3,15,0.00
2013-8-5,79.3,67.0,57.2,58.8,47.4,34.3,97,58,21,30.02,29.94,11,3,11,0.00
2013-8-6,78.3,65.2,55.4,55.8,44.1,32.0,96,53,20,30.02,29.94,8,3,8,0.00
2013-8-7,77.4,65.2,55.6,57.2,46.5,31.8,98,58,20,30.05,29.96,10,2,10,0.00
2013-8-8,74.5,64.3,57.4,57.9,49.8,35.4,98,65,27,30.05,29.96,10,3,11,0.00
2013-8-9,75.4,65.3,56.8,59.0,48.0,33.1,97,60,23,29.99,29.85,9,2,9,0.00
2013-8-10,73.2,64.5,57.9,62.8,56.0,45.3,98,77,40,30.02,29.91,12,3,12,0.17
2013-8-11,71.6,63.1,58.1,57.6,49.2,34.7,94,65,27,30.08,29.99,10,2,10,0.00
2013-8-12,75.6,64.3,58.3,57.2,48.0,34.0,95,61,24,30.11,30.02,11,2,11,0.00
2013-8-13,74.1,64.7,56.3,57.9,45.9,32.7,98,58,23,30.14,29.94,10,2,10,0.00
2013-8-14,78.1,64.2,56.3,64.4,51.5,32.0,98,71,20,29.99,29.91,11,2,11,0.04
2013-8-15,67.1,63.2,60.6,64.9,62.1,59.9,98,96,82,30.02,29.94,11,1,11,0.00
2013-8-16,77.4,67.4,59.0,64.2,51.6,31.6,98,65,21,30.02,29.94,13,2,13,0.00
2013-8-17,76.5,66.4,59.9,58.8,52.2,42.3,90,64,31,30.11,30.02,11,2,11,0.00
2013-8-18,79.9,64.9,57.7,58.8,50.3,35.1,98,65,22,30.14,30.08,11,2,11,0.00
2013-8-19,75.4,64.4,57.0,58.1,47.2,34.3,97,60,24,30.14,30.08,17,4,17,0.00
2013-8-20,78.1,66.1,58.1,51.6,38.3,25.7,77,40,18,30.20,30.08,17,4,17,0.00
2013-8-21,79.3,65.8,53.1,53.2,40.5,30.7,95,48,20,30.11,29.94,19,5,19,0.00
2013-8-22,78.6,66.8,55.4,54.9,40.3,31.3,93,43,21,29.96,29.81,8,2,8,0.00
2013-8-23,77.5,67.4,61.5,58.3,44.6,31.8,87,49,21,29.91,29.85,17,4,17,0.00
2013-8-24,72.9,64.7,58.1,59.4,48.9,32.9,95,63,24,29.94,29.85,13,2,13,0.00
2013-8-25,73.4,62.0,54.7,58.8,46.8,31.8,98,64,23,29.96,29.88,7,1,7,0.00
2013-8-26,78.6,64.4,58.3,58.1,48.2,30.4,93,61,18,29.96,29.88,15,2,15,0.00
2013-8-27,81.1,66.9,58.8,60.1,49.1,35.2,97,60,21,29.96,29.78,9,2,9,0.00
2013-8-28,75.6,66.2,57.9,64.4,56.3,44.2,98,75,34,29.91,29.85,10,2,10,0.13
2013-8-29,72.5,65.0,61.0,67.1,63.1,56.7,98,94,63,30.02,29.88,18,2,18,0.79
2013-8-30,74.3,65.7,59.5,62.4,50.9,31.8,98,66,22,30.17,30.02,14,4,14,0.00
2013-8-31,78.8,65.4,55.8,59.4,49.7,36.0,98,65,23,30.11,29.85,12,2,12,0.00